Tracking 17141 objects as of 7-July-2015
HD Live streaming from Space Station

ATLAS CENTAUR R/B

Track ATLAS CENTAUR R/B now!
ATLAS CENTAUR R/B is classified as:


NORAD ID: 10976
Int'l Code: 1978-068B
Perigee: 619.9 km
Apogee: 36,237.6 km
Inclination: 21.7 °
Period: 647.8 minutes
Semi major axis: 24799 km
RCS: 16.8333 m2 (large)
Launch date: June 29, 1978
Source: United States (US)

Note: This is a ROCKET BODY
Your satellite tracking list
Your tracking list is empty





NASA's NSSDC Master Catalog

Two Line Element Set (TLE):
1 10976U 78068B   15185.13553435 -.00000155  00000-0 -61290-3 0  9995
2 10976 021.6510 087.8169 7181063 181.9590 356.4283 02.22295896300366

Source of the keplerian elements: AFSPC

N2YO: 320